Regional Weather Roundup
Issued by NWS Kansas City/Pleasant Hill, MO

Home | Current Version | Previous Version | Graphics & Text | Print | Product List | Glossary Off
Versions: 1 2 3 4 5 6 7 8 9 10 11 12 13 14 15 16 17 18 19 20 21 22 23 24 25 26 27 28 29 30 31 32 33 34 35 36 37 38 39 40 41 42 43 44 45 46 47 48 49 50

000
ASUS43 KEAX 291211
RWREAX

WEATHER ROUNDUP FOR EASTERN KANSAS AND NORTHWEST MISSOURI
NATIONAL WEATHER SERVICE KANSAS CITY/PLEASANT HILL MO
700 AM CDT TUE JUL 29 2014

KSZ040-057-103>105-MOZ028-029-037-043-291300-
...KANSAS CITY METROPOLITAN AREA...

CITY           SKY/WX    TMP DP  RH WIND       PRES   REMARKS
K.C. INTL      PTCLDY    59  58  96 NW6       30.18R
6HR MIN TEMP:  58; 6HR MAX TEMP:  64;

K.C. DOWNTOWN  CLEAR     63  59  87 NW3       30.17R
6HR MIN TEMP:  63; 6HR MAX TEMP:  68;

LEES SUMMIT    CLEAR     60  59  96 SW3       30.18R
6HR MIN TEMP:  58; 6HR MAX TEMP:  65;

OLATHE - IXD   CLEAR     59  57  93 NW3       30.19R
6HR MIN TEMP:  58; 6HR MAX TEMP:  64;

OLATHE - OJC   CLEAR     61  58  90 CALM      30.18R
6HR MIN TEMP:  60; 6HR MAX TEMP:  68;

LAWRENCE       PTCLDY    59  56  89 NW3       30.18S

$$

MOZ001>008-011>017-020>025-030>033-038>040-044>046-053-054-291300-
...NORTHERN AND CENTRAL MISSOURI...

CITY           SKY/WX    TMP DP  RH WIND       PRES   REMARKS
ST. JOSEPH     CLEAR     55  54  96 CALM      30.18S
6HR MIN TEMP:  54; 6HR MAX TEMP:  60;

MOSBY          SUNNY     55  55 100 CALM      30.17S
WARRENSBURG    CLEAR     57  55  94 CALM      30.17R
WHITEMAN AFB   CLEAR     56  49  75 CALM      30.17R
6HR MIN TEMP:  56; 6HR MAX TEMP:  62;

CLINTON        FOG       55  55 100 CALM      30.17S VSB 1/2
SEDALIA        CLEAR     60  55  83 CALM      30.17R
6HR MIN TEMP:  58; 6HR MAX TEMP:  65;

WARSAW         NOT AVBL
MARSHALL       CLEAR     61  61 100 CALM      30.17S
CHILLICOTHE      N/A     59  57  93 CALM      30.18R
6HR MIN TEMP:  57; 6HR MAX TEMP:  65;

MOBERLY        CLEAR     59  54  82 CALM      30.17S
KIRKSVILLE     CLEAR     56  54  93 CALM      30.17R
6HR MIN TEMP:  52; 6HR MAX TEMP:  59;


$$

MOZ041-047>049-056>058-063>065-088>090-097-291300-
...EASTERN AND SOUTHERN MISSOURI...

CITY           SKY/WX    TMP DP  RH WIND       PRES   REMARKS
ST. LOUIS INTL SUNNY     62  55  77 CALM      30.14S
6HR MIN TEMP:  59; 6HR MAX TEMP:  64;

SPIRIT OF STL  FOG       55  55 100 CALM      30.14R VSB<1/4
COLUMBIA       CLEAR     59  56  89 NW3       30.17R
JEFFERSON CITY CLEAR     57  55  93 CALM      30.16S
MEXICO         CLEAR    N/A N/A N/A W5        30.16R
HANNIBAL       CLEAR     61  57  88 W3        30.16R
ROLLA          CLEAR     56  51  84 CALM      30.16R
LEBANON        CLEAR     59  54  82 CALM      30.18S
OSAGE BEACH    CLEAR     55  52  88 CALM      30.17R
SPRINGFIELD    CLEAR     60  54  80 CALM      30.17S
BRANSON        PTCLDY    57  57 100 S3        30.18S
NEVADA         PTCLDY    61  59  94 CALM      30.19R
JOPLIN         CLEAR     58  57  97 CALM      30.18R
WEST PLAINS    CLEAR     57  53  86 N3        30.18R

$$

IAZ060-094-KSZ022-034>040-054-083-096-NEZ052-066-093-291300-
...KANSAS...SOUTHEAST NEBRASKA AND IOWA...

CITY           SKY/WX    TMP DP  RH WIND       PRES   REMARKS
TOPEKA         CLOUDY    63  59  87 CALM      30.19S
6HR MIN TEMP:  58; 6HR MAX TEMP:  65;

MANHATTAN      CLOUDY    66  58  75 CALM      30.19R
EMPORIA        CLOUDY    63  59  87 CALM      30.19R
CHANUTE        CLOUDY    65  60  84 CALM      30.18S
WICHITA        PTCLDY    65  57  75 E7        30.18S
OMAHA          PTCLDY    59  56  89 N3        30.21R
LINCOLN        PTCLDY    58  53  84 NW3       30.22S
FALLS CITY     CLEAR     55  53  93 NW3       30.19R
LAMONI         CLEAR     57  55  93 NW3       30.17R
DES MOINES     CLEAR     59  55  87 NW3       30.15S

$$




USA.gov is the U.S. government's official web portal to all federal, state and local government web resources and services.